Flag for United Kingdom Weather past 2 weeks in Taunton, England, United Kingdom

Now
59 °F

Drizzle. Overcast.


Feels Like: 56 °F
Forecast: 56 / 65 °F
Wind: 13 mph from South

Location: Dunkeswell Aerodrome

Current Time: Jul 7, 2015 at 5:42:52 AM

Latest Report: Jul 7, 2015 at 3:00 AM


Visibility: 1 mi

Pressure: 29.85 "Hg

Humidity: 100%

Dew point: 59 °F

Location of TauntonLocation

Historic Weather in Taunton — Graph

°F

Taunton temperature yesterday

Maximum temperature yesterday: 63 °F (at 2:00 PM)
Minimum temperature yesterday: 48 °F (at 5:00 AM)
Average temperature yesterday: 57 °F

Past Weeks' High & Low Weather Summary

 TemperatureHumidityPressure
High76 °F (Jun 30, 3:00 PM)100% (Jun 22, 3:00 AM)30.28 "Hg (Jun 22, 3:00 AM)
Low46 °F (Jun 23, 3:00 AM)43% (Jun 30, 5:00 PM)29.80 "Hg (Jul 1, 7:00 AM)
Average60 °F82%30.08 "Hg
* Reported Jun 22 3:00 AM — Jul 7 3:00 AM, Taunton, Weather by CustomWeather, © 2015

Note: Actual official high and low records may vary slightly from our data, if they occured in-between our weather recording intervals... More about our weather records

Advertising

Taunton weather history for previous 24 hours

 ConditionsComfort  
Time TempWeatherWind HumidityBarometerVisibility
3:00 AM
Tue, Jul 7
59 °FDrizzle. Overcast.13 mph100%29.85 "Hg1 mi
2:00 AM58 °FRain. Overcast.15 mph100%29.89 "Hg1 mi
1:00 AM58 °FDrizzle. Overcast.17 mph100%29.90 "Hg3 mi
12:00 AM59 °FCool.20 mph94%29.92 "Hg11 mi
11:00 PM
Mon, Jul 6
58 °FCool.14 mph98%29.94 "Hg8 mi
9:00 PM58 °FCool.13 mph96%29.96 "Hg7 mi
8:00 PM59 °FCool.13 mph91%29.98 "Hg9 mi
7:00 PM61 °FCool.17 mph86%29.99 "Hg10 mi
6:00 PM61 °FCool.16 mph86%29.99 "Hg11 mi
5:00 PM61 °FCool.20 mph84%29.99 "Hg7 mi
4:00 PM63 °FMild.17 mph88%30.01 "Hg10 mi
3:00 PM60 °FRain showers. Cloudy.20 mph97%30.04 "Hg6 mi
2:00 PM63 °FMild.20 mph85%30.04 "Hg10 mi
1:00 PM60 °FCool.21 mph94%30.04 "Hg7 mi
12:00 PM59 °FCool.18 mph98%30.07 "Hg7 mi
11:00 AM58 °FLots of rain. Cloudy.17 mph97%30.07 "Hg6 mi
10:00 AM58 °FCool.16 mph94%30.09 "Hg7 mi
9:00 AM58 °FDrizzle. Cloudy.17 mph96%30.09 "Hg7 mi
8:00 AM56 °FCool.10 mph100%30.10 "Hg7 mi
7:00 AM53 °FFog.8 mph100%30.11 "Hg6 mi
6:00 AM50 °FFog.6 mph100%30.12 "Hg6 mi
5:00 AM48 °FCool.6 mph100%30.12 "Hg6 mi
Weather by CustomWeather, © 2015

See weather overviewHow to use our weather pages